owner,sensor,date,latitude,longitude,vertical_datum,sea_water_practical_salinity,qcFlag 
ENP,ioos.station.NOAA.NDBC:BNKF1:1,2016-10-01T00:00:00Z,25.0870,-80.5190,1.5,33.66,1111122 
ENP,ioos.station.NOAA.NDBC:BNKF1:1,2016-10-01T01:00:00Z,25.0870,-80.5190,1.5,33.67,1111122 
ENP,ioos.station.NOAA.NDBC:BNKF1:1,2016-10-01T02:00:00Z,25.0870,-80.5190,1.5,33.67,1111122 
ENP,ioos.station.NOAA.NDBC:BNKF1:1,2016-10-01T04:00:00Z,25.0870,-80.5190,1.5,33.61,1111122 
ENP,ioos.station.NOAA.NDBC:BNKF1:1,2016-10-01T05:00:00Z,25.0870,-80.5190,1.5,33.6,1111122 
ENP,ioos.station.NOAA.NDBC:BNKF1:1,2016-10-01T07:00:00Z,25.0870,-80.5190,1.5,33.58,1111122 
ENP,ioos.station.NOAA.NDBC:BNKF1:1,2016-10-01T08:00:00Z,25.0870,-80.5190,1.5,33.55,1111122 
ENP,ioos.station.NOAA.NDBC:BNKF1:1,2016-10-01T09:00:00Z,25.0870,-80.5190,1.5,33.54,1111122 
ENP,ioos.station.NOAA.NDBC:BNKF1:1,2016-10-01T10:00:00Z,25.0870,-80.5190,1.5,33.56,1111122 
ENP,ioos.station.NOAA.NDBC:BNKF1:1,2016-10-01T11:00:00Z,25.0870,-80.5190,1.5,33.53,1111122 
ENP,ioos.station.NOAA.NDBC:BNKF1:1,2016-10-01T12:00:00Z,25.0870,-80.5190,1.5,33.58,1111122 
ENP,ioos.station.NOAA.NDBC:BNKF1:1,2016-10-01T13:00:00Z,25.0870,-80.5190,1.5,33.64,1111122 
ENP,ioos.station.NOAA.NDBC:BNKF1:1,2016-10-01T14:00:00Z,25.0870,-80.5190,1.5,33.55,1111122 
ENP,ioos.station.NOAA.NDBC:BNKF1:1,2016-10-01T15:00:00Z,25.0870,-80.5190,1.5,33.53,1111122 
ENP,ioos.station.NOAA.NDBC:BNKF1:1,2016-10-01T16:00:00Z,25.0870,-80.5190,1.5,33.54,1111122 
ENP,ioos.station.NOAA.NDBC:BNKF1:1,2016-10-01T17:00:00Z,25.0870,-80.5190,1.5,33.56,1111122 
ENP,ioos.station.NOAA.NDBC:BNKF1:1,2016-10-01T18:00:00Z,25.0870,-80.5190,1.5,33.58,1111122 
ENP,ioos.station.NOAA.NDBC:BNKF1:1,2016-10-01T19:00:00Z,25.0870,-80.5190,1.5,33.64,1111122 
ENP,ioos.station.NOAA.NDBC:BNKF1:1,2016-10-01T20:00:00Z,25.0870,-80.5190,1.5,33.72,1111122 
ENP,ioos.station.NOAA.NDBC:BNKF1:1,2016-10-01T21:00:00Z,25.0870,-80.5190,1.5,33.79,1111122 
ENP,ioos.station.NOAA.NDBC:BNKF1:1,2016-10-01T22:00:00Z,25.0870,-80.5190,1.5,33.82,1111122 
ENP,ioos.station.NOAA.NDBC:BNKF1:1,2016-10-01T23:00:00Z,25.0870,-80.5190,1.5,33.82,1111122 
ENP,ioos.station.NOAA.NDBC:BNKF1:1,2016-10-02T00:00:00Z,25.0870,-80.5190,1.5,33.8,1111122 
ENP,ioos.station.NOAA.NDBC:BNKF1:1,2016-10-02T01:00:00Z,25.0870,-80.5190,1.5,33.8,1111122 
ENP,ioos.station.NOAA.NDBC:BNKF1:1,2016-10-02T04:00:00Z,25.0870,-80.5190,1.5,33.78,1111122 
ENP,ioos.station.NOAA.NDBC:BNKF1:1,2016-10-02T06:00:00Z,25.0870,-80.5190,1.5,33.79,1111122 
ENP,ioos.station.NOAA.NDBC:BNKF1:1,2016-10-02T07:00:00Z,25.0870,-80.5190,1.5,33.76,1111122 
ENP,ioos.station.NOAA.NDBC:BNKF1:1,2016-10-02T08:00:00Z,25.0870,-80.5190,1.5,33.77,1111122 
ENP,ioos.station.NOAA.NDBC:BNKF1:1,2016-10-02T09:00:00Z,25.0870,-80.5190,1.5,33.72,1111122 
ENP,ioos.station.NOAA.NDBC:BNKF1:1,2016-10-02T10:00:00Z,25.0870,-80.5190,1.5,33.69,1111122 
ENP,ioos.station.NOAA.NDBC:BNKF1:1,2016-10-02T12:00:00Z,25.0870,-80.5190,1.5,33.7,1111122 
ENP,ioos.station.NOAA.NDBC:BNKF1:1,2016-10-02T13:00:00Z,25.0870,-80.5190,1.5,33.66,1111122 
ENP,ioos.station.NOAA.NDBC:BNKF1:1,2016-10-02T14:00:00Z,25.0870,-80.5190,1.5,33.62,1111122 
ENP,ioos.station.NOAA.NDBC:BNKF1:1,2016-10-02T15:00:00Z,25.0870,-80.5190,1.5,33.62,1111122 
ENP,ioos.station.NOAA.NDBC:BNKF1:1,2016-10-02T16:00:00Z,25.0870,-80.5190,1.5,33.66,1111122 
ENP,ioos.station.NOAA.NDBC:BNKF1:1,2016-10-02T17:00:00Z,25.0870,-80.5190,1.5,33.71,1111122 
ENP,ioos.station.NOAA.NDBC:BNKF1:1,2016-10-02T18:00:00Z,25.0870,-80.5190,1.5,33.72,1111122 
ENP,ioos.station.NOAA.NDBC:BNKF1:1,2016-10-02T19:00:00Z,25.0870,-80.5190,1.5,33.75,1111122 
ENP,ioos.station.NOAA.NDBC:BNKF1:1,2016-10-02T20:00:00Z,25.0870,-80.5190,1.5,33.77,1111122 
ENP,ioos.station.NOAA.NDBC:BNKF1:1,2016-10-02T21:00:00Z,25.0870,-80.5190,1.5,33.76,1111122 
ENP,ioos.station.NOAA.NDBC:BNKF1:1,2016-10-02T22:00:00Z,25.0870,-80.5190,1.5,33.77,1111122 
ENP,ioos.station.NOAA.NDBC:BNKF1:1,2016-10-02T23:00:00Z,25.0870,-80.5190,1.5,33.77,1111122 
ENP,ioos.station.NOAA.NDBC:BNKF1:1,2016-10-03T00:00:00Z,25.0870,-80.5190,1.5,33.75,1111122 
ENP,ioos.station.NOAA.NDBC:BNKF1:1,2016-10-03T01:00:00Z,25.0870,-80.5190,1.5,33.7,1111122 
ENP,ioos.station.NOAA.NDBC:BNKF1:1,2016-10-03T02:00:00Z,25.0870,-80.5190,1.5,33.66,1111122 
ENP,ioos.station.NOAA.NDBC:BNKF1:1,2016-10-03T04:00:00Z,25.0870,-80.5190,1.5,33.64,1111122 
ENP,ioos.station.NOAA.NDBC:BNKF1:1,2016-10-03T05:00:00Z,25.0870,-80.5190,1.5,33.5,1111122 
ENP,ioos.station.NOAA.NDBC:BNKF1:1,2016-10-03T07:00:00Z,25.0870,-80.5190,1.5,33.46,1111122 
ENP,ioos.station.NOAA.NDBC:BNKF1:1,2016-10-03T08:00:00Z,25.0870,-80.5190,1.5,33.3,1111122 
ENP,ioos.station.NOAA.NDBC:BNKF1:1,2016-10-03T09:00:00Z,25.0870,-80.5190,1.5,33.25,1111122 
ENP,ioos.station.NOAA.NDBC:BNKF1:1,2016-10-03T11:00:00Z,25.0870,-80.5190,1.5,33.14,1111122 
ENP,ioos.station.NOAA.NDBC:BNKF1:1,2016-10-03T12:00:00Z,25.0870,-80.5190,1.5,33.16,1111122 
ENP,ioos.station.NOAA.NDBC:BNKF1:1,2016-10-03T13:00:00Z,25.0870,-80.5190,1.5,33.17,1111122 
ENP,ioos.station.NOAA.NDBC:BNKF1:1,2016-10-03T14:00:00Z,25.0870,-80.5190,1.5,33.17,1111122 
ENP,ioos.station.NOAA.NDBC:BNKF1:1,2016-10-03T15:00:00Z,25.0870,-80.5190,1.5,33.19,1111122 
ENP,ioos.station.NOAA.NDBC:BNKF1:1,2016-10-03T16:00:00Z,25.0870,-80.5190,1.5,33.24,1111122 
ENP,ioos.station.NOAA.NDBC:BNKF1:1,2016-10-03T17:00:00Z,25.0870,-80.5190,1.5,33.31,1111122 
ENP,ioos.station.NOAA.NDBC:BNKF1:1,2016-10-03T18:00:00Z,25.0870,-80.5190,1.5,33.37,1111122 
ENP,ioos.station.NOAA.NDBC:BNKF1:1,2016-10-03T19:00:00Z,25.0870,-80.5190,1.5,33.4,1111122 
ENP,ioos.station.NOAA.NDBC:BNKF1:1,2016-10-03T20:00:00Z,25.0870,-80.5190,1.5,33.43,1111122 
ENP,ioos.station.NOAA.NDBC:BNKF1:1,2016-10-03T21:00:00Z,25.0870,-80.5190,1.5,33.45,1111122 
ENP,ioos.station.NOAA.NDBC:BNKF1:1,2016-10-03T22:00:00Z,25.0870,-80.5190,1.5,33.44,1111122 
ENP,ioos.station.NOAA.NDBC:BNKF1:1,2016-10-03T23:00:00Z,25.0870,-80.5190,1.5,33.44,1111122 
ENP,ioos.station.NOAA.NDBC:BNKF1:1,2016-10-04T00:00:00Z,25.0870,-80.5190,1.5,33.45,1111122 
ENP,ioos.station.NOAA.NDBC:BNKF1:1,2016-10-04T01:00:00Z,25.0870,-80.5190,1.5,33.25,1111122 
ENP,ioos.station.NOAA.NDBC:BNKF1:1,2016-10-04T02:00:00Z,25.0870,-80.5190,1.5,33.2,1111122 
ENP,ioos.station.NOAA.NDBC:BNKF1:1,2016-10-04T04:00:00Z,25.0870,-80.5190,1.5,33.21,1111122 
ENP,ioos.station.NOAA.NDBC:BNKF1:1,2016-10-04T06:00:00Z,25.0870,-80.5190,1.5,33.14,1111122 
ENP,ioos.station.NOAA.NDBC:BNKF1:1,2016-10-04T07:00:00Z,25.0870,-80.5190,1.5,33.12,1111122 
ENP,ioos.station.NOAA.NDBC:BNKF1:1,2016-10-04T08:00:00Z,25.0870,-80.5190,1.5,33.11,1111122 
ENP,ioos.station.NOAA.NDBC:BNKF1:1,2016-10-04T09:00:00Z,25.0870,-80.5190,1.5,33.11,1111122 
ENP,ioos.station.NOAA.NDBC:BNKF1:1,2016-10-04T11:00:00Z,25.0870,-80.5190,1.5,33.09,1111122 
ENP,ioos.station.NOAA.NDBC:BNKF1:1,2016-10-04T12:00:00Z,25.0870,-80.5190,1.5,33.11,1111122 
ENP,ioos.station.NOAA.NDBC:BNKF1:1,2016-10-04T13:00:00Z,25.0870,-80.5190,1.5,33.12,1111122 
ENP,ioos.station.NOAA.NDBC:BNKF1:1,2016-10-04T14:00:00Z,25.0870,-80.5190,1.5,33.12,1111122 
ENP,ioos.station.NOAA.NDBC:BNKF1:1,2016-10-04T15:00:00Z,25.0870,-80.5190,1.5,33.09,1111122 
ENP,ioos.station.NOAA.NDBC:BNKF1:1,2016-10-04T16:00:00Z,25.0870,-80.5190,1.5,33.09,1111122 
ENP,ioos.station.NOAA.NDBC:BNKF1:1,2016-10-04T17:00:00Z,25.0870,-80.5190,1.5,33.11,1111122 
ENP,ioos.station.NOAA.NDBC:BNKF1:1,2016-10-04T18:00:00Z,25.0870,-80.5190,1.5,33.11,1111122 
ENP,ioos.station.NOAA.NDBC:BNKF1:1,2016-10-04T19:00:00Z,25.0870,-80.5190,1.5,33.17,1111122 
ENP,ioos.station.NOAA.NDBC:BNKF1:1,2016-10-04T20:00:00Z,25.0870,-80.5190,1.5,33.19,1111122 
ENP,ioos.station.NOAA.NDBC:BNKF1:1,2016-10-04T21:00:00Z,25.0870,-80.5190,1.5,33.19,1111122 
ENP,ioos.station.NOAA.NDBC:BNKF1:1,2016-10-04T22:00:00Z,25.0870,-80.5190,1.5,33.2,1111122 
ENP,ioos.station.NOAA.NDBC:BNKF1:1,2016-10-04T23:00:00Z,25.0870,-80.5190,1.5,33.2,1111122 
ENP,ioos.station.NOAA.NDBC:BNKF1:1,2016-10-05T00:00:00Z,25.0870,-80.5190,1.5,33.22,1111122 
ENP,ioos.station.NOAA.NDBC:BNKF1:1,2016-10-05T01:00:00Z,25.0870,-80.5190,1.5,33.22,1111122 
ENP,ioos.station.NOAA.NDBC:BNKF1:1,2016-10-05T02:00:00Z,25.0870,-80.5190,1.5,33.23,1111122 
ENP,ioos.station.NOAA.NDBC:BNKF1:1,2016-10-05T04:00:00Z,25.0870,-80.5190,1.5,33.09,1111122 
ENP,ioos.station.NOAA.NDBC:BNKF1:1,2016-10-05T06:00:00Z,25.0870,-80.5190,1.5,33.03,1111122 
ENP,ioos.station.NOAA.NDBC:BNKF1:1,2016-10-05T07:00:00Z,25.0870,-80.5190,1.5,32.98,1111122 
ENP,ioos.station.NOAA.NDBC:BNKF1:1,2016-10-05T08:00:00Z,25.0870,-80.5190,1.5,32.79,1111122 
ENP,ioos.station.NOAA.NDBC:BNKF1:1,2016-10-05T09:00:00Z,25.0870,-80.5190,1.5,32.6,1111122 
ENP,ioos.station.NOAA.NDBC:BNKF1:1,2016-10-05T11:00:00Z,25.0870,-80.5190,1.5,32.5,1111122 
ENP,ioos.station.NOAA.NDBC:BNKF1:1,2016-10-05T12:00:00Z,25.0870,-80.5190,1.5,32.49,1111122 
ENP,ioos.station.NOAA.NDBC:BNKF1:1,2016-10-05T13:00:00Z,25.0870,-80.5190,1.5,32.46,1111122 
ENP,ioos.station.NOAA.NDBC:BNKF1:1,2016-10-05T14:00:00Z,25.0870,-80.5190,1.5,32.43,1111122 
ENP,ioos.station.NOAA.NDBC:BNKF1:1,2016-10-05T15:00:00Z,25.0870,-80.5190,1.5,32.44,1111122 
ENP,ioos.station.NOAA.NDBC:BNKF1:1,2016-10-05T16:00:00Z,25.0870,-80.5190,1.5,32.38,1111122 
ENP,ioos.station.NOAA.NDBC:BNKF1:1,2016-10-05T17:00:00Z,25.0870,-80.5190,1.5,32.41,1111122 
ENP,ioos.station.NOAA.NDBC:BNKF1:1,2016-10-05T18:00:00Z,25.0870,-80.5190,1.5,32.29,1111122 
ENP,ioos.station.NOAA.NDBC:BNKF1:1,2016-10-05T19:00:00Z,25.0870,-80.5190,1.5,32.29,1111122 
ENP,ioos.station.NOAA.NDBC:BNKF1:1,2016-10-05T20:00:00Z,25.0870,-80.5190,1.5,32.22,1111122 
ENP,ioos.station.NOAA.NDBC:BNKF1:1,2016-10-05T21:00:00Z,25.0870,-80.5190,1.5,32.22,1111122 
ENP,ioos.station.NOAA.NDBC:BNKF1:1,2016-10-05T22:00:00Z,25.0870,-80.5190,1.5,32.26,1111122 
ENP,ioos.station.NOAA.NDBC:BNKF1:1,2016-10-05T23:00:00Z,25.0870,-80.5190,1.5,32.32,1111122 
ENP,ioos.station.NOAA.NDBC:BNKF1:1,2016-10-06T00:00:00Z,25.0870,-80.5190,1.5,32.38,1111122 
ENP,ioos.station.NOAA.NDBC:BNKF1:1,2016-10-06T01:00:00Z,25.0870,-80.5190,1.5,32.49,1111122 
ENP,ioos.station.NOAA.NDBC:BNKF1:1,2016-10-06T04:00:00Z,25.0870,-80.5190,1.5,32.51,1111122 
ENP,ioos.station.NOAA.NDBC:BNKF1:1,2016-10-06T07:00:00Z,25.0870,-80.5190,1.5,32.52,1111122 
ENP,ioos.station.NOAA.NDBC:BNKF1:1,2016-10-06T08:00:00Z,25.0870,-80.5190,1.5,32.46,1111122 
ENP,ioos.station.NOAA.NDBC:BNKF1:1,2016-10-06T09:00:00Z,25.0870,-80.5190,1.5,32.4,1111122 
ENP,ioos.station.NOAA.NDBC:BNKF1:1,2016-10-06T11:00:00Z,25.0870,-80.5190,1.5,32.14,1111122 
ENP,ioos.station.NOAA.NDBC:BNKF1:1,2016-10-06T12:00:00Z,25.0870,-80.5190,1.5,32.09,1111122 
ENP,ioos.station.NOAA.NDBC:BNKF1:1,2016-10-06T13:00:00Z,25.0870,-80.5190,1.5,32.06,1111122 
ENP,ioos.station.NOAA.NDBC:BNKF1:1,2016-10-06T14:00:00Z,25.0870,-80.5190,1.5,32.06,1111122 
ENP,ioos.station.NOAA.NDBC:BNKF1:1,2016-10-06T15:00:00Z,25.0870,-80.5190,1.5,32.07,1111122 
ENP,ioos.station.NOAA.NDBC:BNKF1:1,2016-10-06T16:00:00Z,25.0870,-80.5190,1.5,32.08,1111122 
ENP,ioos.station.NOAA.NDBC:BNKF1:1,2016-10-06T17:00:00Z,25.0870,-80.5190,1.5,31.95,1111122 
ENP,ioos.station.NOAA.NDBC:BNKF1:1,2016-10-06T18:00:00Z,25.0870,-80.5190,1.5,31.86,1111122 
ENP,ioos.station.NOAA.NDBC:BNKF1:1,2016-10-06T19:00:00Z,25.0870,-80.5190,1.5,31.77,1111122 
ENP,ioos.station.NOAA.NDBC:BNKF1:1,2016-10-06T20:00:00Z,25.0870,-80.5190,1.5,31.58,1111122 
ENP,ioos.station.NOAA.NDBC:BNKF1:1,2016-10-06T21:00:00Z,25.0870,-80.5190,1.5,31.51,1111122 
ENP,ioos.station.NOAA.NDBC:BNKF1:1,2016-10-06T22:00:00Z,25.0870,-80.5190,1.5,31.47,1111122 
ENP,ioos.station.NOAA.NDBC:BNKF1:1,2016-10-06T23:00:00Z,25.0870,-80.5190,1.5,31.5,1111122 
ENP,ioos.station.NOAA.NDBC:BNKF1:1,2016-10-07T00:00:00Z,25.0870,-80.5190,1.5,31.5,1111122 
ENP,ioos.station.NOAA.NDBC:BNKF1:1,2016-10-07T01:00:00Z,25.0870,-80.5190,1.5,31.5,1111122 
ENP,ioos.station.NOAA.NDBC:BNKF1:1,2016-10-07T02:00:00Z,25.0870,-80.5190,1.5,31.5,1111122 
ENP,ioos.station.NOAA.NDBC:BNKF1:1,2016-10-07T04:00:00Z,25.0870,-80.5190,1.5,31.5,1111122 
ENP,ioos.station.NOAA.NDBC:BNKF1:1,2016-10-07T05:00:00Z,25.0870,-80.5190,1.5,31.49,1111122 
ENP,ioos.station.NOAA.NDBC:BNKF1:1,2016-10-07T07:00:00Z,25.0870,-80.5190,1.5,31.52,1111122 
ENP,ioos.station.NOAA.NDBC:BNKF1:1,2016-10-07T08:00:00Z,25.0870,-80.5190,1.5,31.63,1111122 
ENP,ioos.station.NOAA.NDBC:BNKF1:1,2016-10-07T09:00:00Z,25.0870,-80.5190,1.5,31.8,1111122 
ENP,ioos.station.NOAA.NDBC:BNKF1:1,2016-10-07T11:00:00Z,25.0870,-80.5190,1.5,32.14,1111122 
ENP,ioos.station.NOAA.NDBC:BNKF1:1,2016-10-07T12:00:00Z,25.0870,-80.5190,1.5,32.22,1111122 
ENP,ioos.station.NOAA.NDBC:BNKF1:1,2016-10-07T13:00:00Z,25.0870,-80.5190,1.5,32.28,1111122 
ENP,ioos.station.NOAA.NDBC:BNKF1:1,2016-10-07T14:00:00Z,25.0870,-80.5190,1.5,32.36,1111122 
ENP,ioos.station.NOAA.NDBC:BNKF1:1,2016-10-07T15:00:00Z,25.0870,-80.5190,1.5,32.46,1111122 
ENP,ioos.station.NOAA.NDBC:BNKF1:1,2016-10-07T16:00:00Z,25.0870,-80.5190,1.5,32.58,1111122 
ENP,ioos.station.NOAA.NDBC:BNKF1:1,2016-10-07T18:00:00Z,25.0870,-80.5190,1.5,32.7,1111122 
ENP,ioos.station.NOAA.NDBC:BNKF1:1,2016-10-07T20:00:00Z,25.0870,-80.5190,1.5,32.76,1111122 
ENP,ioos.station.NOAA.NDBC:BNKF1:1,2016-10-07T21:00:00Z,25.0870,-80.5190,1.5,32.79,1111122 
ENP,ioos.station.NOAA.NDBC:BNKF1:1,2016-10-07T22:00:00Z,25.0870,-80.5190,1.5,32.79,1111122 
ENP,ioos.station.NOAA.NDBC:BNKF1:1,2016-10-07T23:00:00Z,25.0870,-80.5190,1.5,32.82,1111122 
ENP,ioos.station.NOAA.NDBC:BNKF1:1,2016-10-08T00:00:00Z,25.0870,-80.5190,1.5,32.81,1111122 
ENP,ioos.station.NOAA.NDBC:BNKF1:1,2016-10-08T01:00:00Z,25.0870,-80.5190,1.5,32.79,1111122 
ENP,ioos.station.NOAA.NDBC:BNKF1:1,2016-10-08T02:00:00Z,25.0870,-80.5190,1.5,32.73,1111122 
ENP,ioos.station.NOAA.NDBC:BNKF1:1,2016-10-08T04:00:00Z,25.0870,-80.5190,1.5,32.68,1111122 
ENP,ioos.station.NOAA.NDBC:BNKF1:1,2016-10-08T06:00:00Z,25.0870,-80.5190,1.5,32.62,1111122 
ENP,ioos.station.NOAA.NDBC:BNKF1:1,2016-10-08T07:00:00Z,25.0870,-80.5190,1.5,32.6,1111122 
ENP,ioos.station.NOAA.NDBC:BNKF1:1,2016-10-08T08:00:00Z,25.0870,-80.5190,1.5,32.59,1111122 
ENP,ioos.station.NOAA.NDBC:BNKF1:1,2016-10-08T09:00:00Z,25.0870,-80.5190,1.5,32.57,1111122 
ENP,ioos.station.NOAA.NDBC:BNKF1:1,2016-10-08T11:00:00Z,25.0870,-80.5190,1.5,32.58,1111122 
ENP,ioos.station.NOAA.NDBC:BNKF1:1,2016-10-08T12:00:00Z,25.0870,-80.5190,1.5,32.59,1111122 
ENP,ioos.station.NOAA.NDBC:BNKF1:1,2016-10-08T13:00:00Z,25.0870,-80.5190,1.5,32.61,1111122 
ENP,ioos.station.NOAA.NDBC:BNKF1:1,2016-10-08T14:00:00Z,25.0870,-80.5190,1.5,32.62,1111122 
ENP,ioos.station.NOAA.NDBC:BNKF1:1,2016-10-08T15:00:00Z,25.0870,-80.5190,1.5,32.64,1111122 
ENP,ioos.station.NOAA.NDBC:BNKF1:1,2016-10-08T16:00:00Z,25.0870,-80.5190,1.5,32.65,1111122 
ENP,ioos.station.NOAA.NDBC:BNKF1:1,2016-10-08T17:00:00Z,25.0870,-80.5190,1.5,32.68,1111122 
ENP,ioos.station.NOAA.NDBC:BNKF1:1,2016-10-08T18:00:00Z,25.0870,-80.5190,1.5,32.69,1111122 
ENP,ioos.station.NOAA.NDBC:BNKF1:1,2016-10-08T19:00:00Z,25.0870,-80.5190,1.5,32.76,1111122 
ENP,ioos.station.NOAA.NDBC:BNKF1:1,2016-10-08T20:00:00Z,25.0870,-80.5190,1.5,32.81,1111122 
ENP,ioos.station.NOAA.NDBC:BNKF1:1,2016-10-08T21:00:00Z,25.0870,-80.5190,1.5,32.87,1111122 
ENP,ioos.station.NOAA.NDBC:BNKF1:1,2016-10-08T22:00:00Z,25.0870,-80.5190,1.5,32.97,1111122 
ENP,ioos.station.NOAA.NDBC:BNKF1:1,2016-10-08T23:00:00Z,25.0870,-80.5190,1.5,33.02,1111122 
ENP,ioos.station.NOAA.NDBC:BNKF1:1,2016-10-09T00:00:00Z,25.0870,-80.5190,1.5,33.06,1111122 
ENP,ioos.station.NOAA.NDBC:BNKF1:1,2016-10-09T01:00:00Z,25.0870,-80.5190,1.5,33.09,1111122 
ENP,ioos.station.NOAA.NDBC:BNKF1:1,2016-10-09T02:00:00Z,25.0870,-80.5190,1.5,33.11,1111122 
ENP,ioos.station.NOAA.NDBC:BNKF1:1,2016-10-09T04:00:00Z,25.0870,-80.5190,1.5,33.13,1111122 
ENP,ioos.station.NOAA.NDBC:BNKF1:1,2016-10-09T06:00:00Z,25.0870,-80.5190,1.5,33.09,1111122 
ENP,ioos.station.NOAA.NDBC:BNKF1:1,2016-10-09T07:00:00Z,25.0870,-80.5190,1.5,33.07,1111122 
ENP,ioos.station.NOAA.NDBC:BNKF1:1,2016-10-09T08:00:00Z,25.0870,-80.5190,1.5,33.05,1111122 
ENP,ioos.station.NOAA.NDBC:BNKF1:1,2016-10-09T09:00:00Z,25.0870,-80.5190,1.5,33.06,1111122 
ENP,ioos.station.NOAA.NDBC:BNKF1:1,2016-10-09T10:00:00Z,25.0870,-80.5190,1.5,33.06,1111122 
ENP,ioos.station.NOAA.NDBC:BNKF1:1,2016-10-09T12:00:00Z,25.0870,-80.5190,1.5,33.06,1111122 
ENP,ioos.station.NOAA.NDBC:BNKF1:1,2016-10-09T13:00:00Z,25.0870,-80.5190,1.5,33.07,1111122 
ENP,ioos.station.NOAA.NDBC:BNKF1:1,2016-10-09T14:00:00Z,25.0870,-80.5190,1.5,33.11,1111122 
ENP,ioos.station.NOAA.NDBC:BNKF1:1,2016-10-09T15:00:00Z,25.0870,-80.5190,1.5,33.09,1111122 
ENP,ioos.station.NOAA.NDBC:BNKF1:1,2016-10-09T16:00:00Z,25.0870,-80.5190,1.5,33.09,1111122 
ENP,ioos.station.NOAA.NDBC:BNKF1:1,2016-10-09T17:00:00Z,25.0870,-80.5190,1.5,33.1,1111122 
ENP,ioos.station.NOAA.NDBC:BNKF1:1,2016-10-09T18:00:00Z,25.0870,-80.5190,1.5,33.14,1111122 
ENP,ioos.station.NOAA.NDBC:BNKF1:1,2016-10-09T19:00:00Z,25.0870,-80.5190,1.5,33.14,1111122 
ENP,ioos.station.NOAA.NDBC:BNKF1:1,2016-10-09T20:00:00Z,25.0870,-80.5190,1.5,33.19,1111122 
ENP,ioos.station.NOAA.NDBC:BNKF1:1,2016-10-09T21:00:00Z,25.0870,-80.5190,1.5,33.17,1111122 
ENP,ioos.station.NOAA.NDBC:BNKF1:1,2016-10-09T22:00:00Z,25.0870,-80.5190,1.5,33.18,1111122 
ENP,ioos.station.NOAA.NDBC:BNKF1:1,2016-10-09T23:00:00Z,25.0870,-80.5190,1.5,33.19,1111122 
ENP,ioos.station.NOAA.NDBC:BNKF1:1,2016-10-10T00:00:00Z,25.0870,-80.5190,1.5,32.89,1111122 
ENP,ioos.station.NOAA.NDBC:BNKF1:1,2016-10-10T01:00:00Z,25.0870,-80.5190,1.5,32.81,1111122 
ENP,ioos.station.NOAA.NDBC:BNKF1:1,2016-10-10T02:00:00Z,25.0870,-80.5190,1.5,32.9,1111122 
ENP,ioos.station.NOAA.NDBC:BNKF1:1,2016-10-10T04:00:00Z,25.0870,-80.5190,1.5,32.62,1111122 
ENP,ioos.station.NOAA.NDBC:BNKF1:1,2016-10-10T06:00:00Z,25.0870,-80.5190,1.5,32.65,1111122 
ENP,ioos.station.NOAA.NDBC:BNKF1:1,2016-10-10T07:00:00Z,25.0870,-80.5190,1.5,32.62,1111122 
ENP,ioos.station.NOAA.NDBC:BNKF1:1,2016-10-10T08:00:00Z,25.0870,-80.5190,1.5,32.19,1111122 
ENP,ioos.station.NOAA.NDBC:BNKF1:1,2016-10-10T09:00:00Z,25.0870,-80.5190,1.5,32.1,1111122 
ENP,ioos.station.NOAA.NDBC:BNKF1:1,2016-10-10T11:00:00Z,25.0870,-80.5190,1.5,32.22,1111122 
ENP,ioos.station.NOAA.NDBC:BNKF1:1,2016-10-10T12:00:00Z,25.0870,-80.5190,1.5,32.28,1111122 
ENP,ioos.station.NOAA.NDBC:BNKF1:1,2016-10-10T13:00:00Z,25.0870,-80.5190,1.5,32.3,1111122 
ENP,ioos.station.NOAA.NDBC:BNKF1:1,2016-10-10T14:00:00Z,25.0870,-80.5190,1.5,32.33,1111122 
ENP,ioos.station.NOAA.NDBC:BNKF1:1,2016-10-10T15:00:00Z,25.0870,-80.5190,1.5,32.32,1111122 
ENP,ioos.station.NOAA.NDBC:BNKF1:1,2016-10-10T16:00:00Z,25.0870,-80.5190,1.5,32.33,1111122 
ENP,ioos.station.NOAA.NDBC:BNKF1:1,2016-10-10T17:00:00Z,25.0870,-80.5190,1.5,32.36,1111122 
ENP,ioos.station.NOAA.NDBC:BNKF1:1,2016-10-10T18:00:00Z,25.0870,-80.5190,1.5,32.38,1111122 
ENP,ioos.station.NOAA.NDBC:BNKF1:1,2016-10-10T19:00:00Z,25.0870,-80.5190,1.5,32.41,1111122 
ENP,ioos.station.NOAA.NDBC:BNKF1:1,2016-10-10T20:00:00Z,25.0870,-80.5190,1.5,32.46,1111122 
ENP,ioos.station.NOAA.NDBC:BNKF1:1,2016-10-10T21:00:00Z,25.0870,-80.5190,1.5,32.47,1111122 
ENP,ioos.station.NOAA.NDBC:BNKF1:1,2016-10-10T22:00:00Z,25.0870,-80.5190,1.5,32.49,1111122 
ENP,ioos.station.NOAA.NDBC:BNKF1:1,2016-10-10T23:00:00Z,25.0870,-80.5190,1.5,32.49,1111122 
ENP,ioos.station.NOAA.NDBC:BNKF1:1,2016-10-11T00:00:00Z,25.0870,-80.5190,1.5,32.49,1111122 
ENP,ioos.station.NOAA.NDBC:BNKF1:1,2016-10-11T01:00:00Z,25.0870,-80.5190,1.5,32.5,1111122 
ENP,ioos.station.NOAA.NDBC:BNKF1:1,2016-10-11T02:00:00Z,25.0870,-80.5190,1.5,32.52,1111122 
ENP,ioos.station.NOAA.NDBC:BNKF1:1,2016-10-11T04:00:00Z,25.0870,-80.5190,1.5,32.51,1111122 
ENP,ioos.station.NOAA.NDBC:BNKF1:1,2016-10-11T06:00:00Z,25.0870,-80.5190,1.5,32.47,1111122 
ENP,ioos.station.NOAA.NDBC:BNKF1:1,2016-10-11T07:00:00Z,25.0870,-80.5190,1.5,32.49,1111122 
ENP,ioos.station.NOAA.NDBC:BNKF1:1,2016-10-11T08:00:00Z,25.0870,-80.5190,1.5,32.27,1111122 
ENP,ioos.station.NOAA.NDBC:BNKF1:1,2016-10-11T09:00:00Z,25.0870,-80.5190,1.5,32.14,1111122 
ENP,ioos.station.NOAA.NDBC:BNKF1:1,2016-10-11T11:00:00Z,25.0870,-80.5190,1.5,31.93,1111122 
ENP,ioos.station.NOAA.NDBC:BNKF1:1,2016-10-11T12:00:00Z,25.0870,-80.5190,1.5,31.95,1111122 
ENP,ioos.station.NOAA.NDBC:BNKF1:1,2016-10-11T13:00:00Z,25.0870,-80.5190,1.5,31.98,1111122 
ENP,ioos.station.NOAA.NDBC:BNKF1:1,2016-10-11T14:00:00Z,25.0870,-80.5190,1.5,32.02,1111122 
ENP,ioos.station.NOAA.NDBC:BNKF1:1,2016-10-11T15:00:00Z,25.0870,-80.5190,1.5,32.03,1111122 
ENP,ioos.station.NOAA.NDBC:BNKF1:1,2016-10-11T16:00:00Z,25.0870,-80.5190,1.5,32.01,1111122 
ENP,ioos.station.NOAA.NDBC:BNKF1:1,2016-10-11T17:00:00Z,25.0870,-80.5190,1.5,31.97,1111122 
ENP,ioos.station.NOAA.NDBC:BNKF1:1,2016-10-11T18:00:00Z,25.0870,-80.5190,1.5,32.01,1111122 
ENP,ioos.station.NOAA.NDBC:BNKF1:1,2016-10-11T19:00:00Z,25.0870,-80.5190,1.5,31.99,1111122 
ENP,ioos.station.NOAA.NDBC:BNKF1:1,2016-10-11T20:00:00Z,25.0870,-80.5190,1.5,32.03,1111122 
ENP,ioos.station.NOAA.NDBC:BNKF1:1,2016-10-11T21:00:00Z,25.0870,-80.5190,1.5,32.04,1111122 
ENP,ioos.station.NOAA.NDBC:BNKF1:1,2016-10-11T22:00:00Z,25.0870,-80.5190,1.5,32.06,1111122 
ENP,ioos.station.NOAA.NDBC:BNKF1:1,2016-10-11T23:00:00Z,25.0870,-80.5190,1.5,32.05,1111122 
ENP,ioos.station.NOAA.NDBC:BNKF1:1,2016-10-12T00:00:00Z,25.0870,-80.5190,1.5,32.06,1111122 
ENP,ioos.station.NOAA.NDBC:BNKF1:1,2016-10-12T01:00:00Z,25.0870,-80.5190,1.5,31.53,1111122 
ENP,ioos.station.NOAA.NDBC:BNKF1:1,2016-10-12T04:00:00Z,25.0870,-80.5190,1.5,31.13,1111122 
ENP,ioos.station.NOAA.NDBC:BNKF1:1,2016-10-12T07:00:00Z,25.0870,-80.5190,1.5,30.43,1111122 
ENP,ioos.station.NOAA.NDBC:BNKF1:1,2016-10-12T08:00:00Z,25.0870,-80.5190,1.5,30.47,1111122 
ENP,ioos.station.NOAA.NDBC:BNKF1:1,2016-10-12T09:00:00Z,25.0870,-80.5190,1.5,30.4,1111122 
ENP,ioos.station.NOAA.NDBC:BNKF1:1,2016-10-12T11:00:00Z,25.0870,-80.5190,1.5,30.11,1111122 
ENP,ioos.station.NOAA.NDBC:BNKF1:1,2016-10-12T12:00:00Z,25.0870,-80.5190,1.5,30.16,1111122 
ENP,ioos.station.NOAA.NDBC:BNKF1:1,2016-10-12T13:00:00Z,25.0870,-80.5190,1.5,30.26,1111122 
ENP,ioos.station.NOAA.NDBC:BNKF1:1,2016-10-12T14:00:00Z,25.0870,-80.5190,1.5,30.09,1111122 
ENP,ioos.station.NOAA.NDBC:BNKF1:1,2016-10-12T15:00:00Z,25.0870,-80.5190,1.5,30.11,1111122 
ENP,ioos.station.NOAA.NDBC:BNKF1:1,2016-10-12T16:00:00Z,25.0870,-80.5190,1.5,30.2,1111122 
ENP,ioos.station.NOAA.NDBC:BNKF1:1,2016-10-12T17:00:00Z,25.0870,-80.5190,1.5,30.23,1111122 
ENP,ioos.station.NOAA.NDBC:BNKF1:1,2016-10-12T18:00:00Z,25.0870,-80.5190,1.5,30.06,1111122 
ENP,ioos.station.NOAA.NDBC:BNKF1:1,2016-10-12T19:00:00Z,25.0870,-80.5190,1.5,29.95,1111122 
ENP,ioos.station.NOAA.NDBC:BNKF1:1,2016-10-12T20:00:00Z,25.0870,-80.5190,1.5,29.9,1111122 
ENP,ioos.station.NOAA.NDBC:BNKF1:1,2016-10-12T21:00:00Z,25.0870,-80.5190,1.5,29.92,1111122 
ENP,ioos.station.NOAA.NDBC:BNKF1:1,2016-10-12T22:00:00Z,25.0870,-80.5190,1.5,29.85,1111122 
ENP,ioos.station.NOAA.NDBC:BNKF1:1,2016-10-12T23:00:00Z,25.0870,-80.5190,1.5,29.9,1111122 
ENP,ioos.station.NOAA.NDBC:BNKF1:1,2016-10-13T00:00:00Z,25.0870,-80.5190,1.5,30.16,1111122 
ENP,ioos.station.NOAA.NDBC:BNKF1:1,2016-10-13T01:00:00Z,25.0870,-80.5190,1.5,30.21,1111122 
ENP,ioos.station.NOAA.NDBC:BNKF1:1,2016-10-13T04:00:00Z,25.0870,-80.5190,1.5,30.82,1111122 
ENP,ioos.station.NOAA.NDBC:BNKF1:1,2016-10-13T07:00:00Z,25.0870,-80.5190,1.5,31.13,1111122 
ENP,ioos.station.NOAA.NDBC:BNKF1:1,2016-10-13T08:00:00Z,25.0870,-80.5190,1.5,31.14,1111122 
ENP,ioos.station.NOAA.NDBC:BNKF1:1,2016-10-13T09:00:00Z,25.0870,-80.5190,1.5,31.04,1111122 
ENP,ioos.station.NOAA.NDBC:BNKF1:1,2016-10-13T11:00:00Z,25.0870,-80.5190,1.5,30.5,1111122 
ENP,ioos.station.NOAA.NDBC:BNKF1:1,2016-10-13T12:00:00Z,25.0870,-80.5190,1.5,30.6,1111122 
ENP,ioos.station.NOAA.NDBC:BNKF1:1,2016-10-13T13:00:00Z,25.0870,-80.5190,1.5,30.68,1111122 
ENP,ioos.station.NOAA.NDBC:BNKF1:1,2016-10-13T14:00:00Z,25.0870,-80.5190,1.5,30.71,1111122 
ENP,ioos.station.NOAA.NDBC:BNKF1:1,2016-10-13T15:00:00Z,25.0870,-80.5190,1.5,30.8,1111122 
ENP,ioos.station.NOAA.NDBC:BNKF1:1,2016-10-13T16:00:00Z,25.0870,-80.5190,1.5,30.83,1111122 
ENP,ioos.station.NOAA.NDBC:BNKF1:1,2016-10-13T17:00:00Z,25.0870,-80.5190,1.5,30.73,1111122 
ENP,ioos.station.NOAA.NDBC:BNKF1:1,2016-10-13T18:00:00Z,25.0870,-80.5190,1.5,30.58,1111122 